DW8356 Weather Reports


time (UTC)temp
C
wind
direction
speed
KPH
gust
KPH
rain 1hr
cm
rain 24hr
cm
rain mn
cm
humidity
%
barometer
mb
20260906231024 36 0 4.8 14.5 0.00 0.00 0.00 39 1011.3
20260906230524 36 155 3.2 14.5 0.00 0.00 0.00 39 1011.2
20260906230042 36 163 3.2 14.5 0.00 0.00 0.00 38 1011.3
20260906225521 36 183 1.6 17.7 0.00 0.00 0.00 38 1011.3
20260906225025 37 181 6.4 17.7 0.00 0.00 0.00 38 1011.4
20260906224549 37 190 3.2 16.1 0.00 0.00 0.00 38 1011.4
20260906224027 37 161 3.2 16.1 0.00 0.00 0.00 38 1011.4
20260906223524 37 50 3.2 9.7 0.00 0.00 0.00 38 1011.5
20260906223048 37 171 3.2 14.5 0.00 0.00 0.00 37 1011.4
20260906222525 37 128 3.2 14.5 0.00 0.00 0.00 37 1011.5
20260906222025 38 153 4.8 14.5 0.00 0.00 0.00 36 1011.5
20260906221557 38 111 3.2 14.5 0.00 0.00 0.00 37 1011.5
20260906221024 38 158 3.2 12.9 0.00 0.00 0.00 37 1011.5
20260906220524 38 0 1.6 9.7 0.00 0.00 0.00 38 1011.4
20260906220046 37 0 1.6 17.7 0.00 0.00 0.00 36 1011.4
20260906215521 37 194 6.4 17.7 0.00 0.00 0.00 36 1011.4
20260906215020 38 143 3.2 16.1 0.00 0.00 0.00 36 1011.3
20260906214543 38 170 1.6 20.9 0.00 0.00 0.00 37 1011.4
20260906214022 38 160 6.4 20.9 0.00 0.00 0.00 38 1011.5
20260906213524 38 118 4.8 14.5 0.00 0.00 0.00 36 1011.5
20260906213056 38 142 4.8 14.5 0.00 0.00 0.00 35 1011.6
20260906212524 38 65 1.6 14.5 0.00 0.00 0.00 36 1011.7
20260906212024 38 120 6.4 14.5 0.00 0.00 0.00 37 1011.8
20260906211545 38 110 3.2 19.3 0.00 0.00 0.00 37 1011.8
20260906211021 38 153 4.8 19.3 0.00 0.00 0.00 36 1011.9
20260906210524 38 150 4.8 19.3 0.00 0.00 0.00 36 1011.9
20260906210045 38 113 6.4 19.3 0.00 0.00 0.00 36 1012.1
20260906205519 38 242 3.2 12.9 0.00 0.00 0.00 36 1012.1
20260906205021 38 180 3.2 16.1 0.00 0.00 0.00 37 1012.3
20260906204559 38 102 6.4 16.1 0.00 0.00 0.00 36 1012.4
20260906204024 38 212 4.8 17.7 0.00 0.00 0.00 38 1012.4
20260906203525 37 204 4.8 17.7 0.00 0.00 0.00 38 1012.5
20260906203045 37 159 4.8 16.1 0.00 0.00 0.00 40 1012.6
20260906202524 37 169 6.4 22.5 0.00 0.00 0.00 39 1012.7
20260906202026 37 123 6.4 22.5 0.00 0.00 0.00 39 1012.8
20260906201601 36 95 4.8 19.3 0.00 0.00 0.00 40 1012.8
20260906201023 36 90 9.7 19.3 0.00 0.00 0.00 41 1012.8
20260906200524 36 117 6.4 17.7 0.00 0.00 0.00 42 1012.8
20260906200043 36 195 4.8 17.7 0.00 0.00 0.00 43 1012.9
20260906195522 35 94 8.0 19.3 0.00 0.00 0.00 43 1012.9
20260906195023 36 147 6.4 19.3 0.00 0.00 0.00 42 1013.0
20260906194549 37 91 6.4 17.7 0.00 0.00 0.00 41 1013.0
20260906194024 37 84 3.2 17.7 0.00 0.00 0.00 40 1013.1
20260906193524 36 171 8.0 17.7 0.00 0.00 0.00 42 1013.0
20260906193047 36 32 1.6 14.5 0.00 0.00 0.00 43 1013.1
20260906192523 35 171 6.4 17.7 0.00 0.00 0.00 44 1013.2
20260906192025 35 113 8.0 20.9 0.00 0.00 0.00 45 1013.3
20260906191544 35 106 4.8 20.9 0.00 0.00 0.00 45 1013.4
20260906191026 36 139 3.2 11.3 0.00 0.00 0.00 45 1013.4
20260906190523 36 159 4.8 12.9 0.00 0.00 0.00 44 1013.4
20260906190049 36 89 3.2 19.3 0.00 0.00 0.00 45 1013.5
20260906185525 36 105 6.4 19.3 0.00 0.00 0.00 44 1013.6
20260906185027 36 88 3.2 17.7 0.00 0.00 0.00 44 1013.6
20260906184554 36 107 4.8 17.7 0.00 0.00 0.00 43 1013.6
20260906184024 37 149 4.8 17.7 0.00 0.00 0.00 42 1013.7
20260906183525 36 142 4.8 17.7 0.00 0.00 0.00 44 1013.7
20260906183045 36 176 4.8 20.9 0.00 0.00 0.00 43 1013.8
20260906182523 37 178 9.7 20.9 0.00 0.00 0.00 42 1013.8
20260906182024 37 28 4.8 14.5 0.00 0.00 0.00 43 1013.9
20260906181545 37 196 4.8 17.7 0.00 0.00 0.00 43 1013.9
20260906181022 37 227 3.2 17.7 0.00 0.00 0.00 43 1014.0
20260906180528 37 171 3.2 16.1 0.00 0.00 0.00 44 1014.1
20260906180101 37 209 3.2 14.5 0.00 0.00 0.00 44 1014.2
20260906175525 36 169 3.2 12.9 0.00 0.00 0.00 45 1014.3
20260906175024 36 157 4.8 16.1 0.00 0.00 0.00 45 1014.3
20260906174545 36 146 3.2 16.1 0.00 0.00 0.00 45 1014.4
20260906174021 36 202 1.6 9.7 0.00 0.00 0.00 47 1014.5
20260906173523 36 99 1.6 11.3 0.00 0.00 0.00 45 1014.6
20260906173045 36 198 3.2 12.9 0.00 0.00 0.00 46 1014.8
20260906172524 36 171 1.6 16.1 0.00 0.00 0.00 46 1014.9
20260906172023 35 145 3.2 16.1 0.00 0.00 0.00 46 1014.9
20260906171554 35 94 3.2 14.5 0.00 0.00 0.00 48 1015.0
20260906171023 34 146 4.8 14.5 0.00 0.00 0.00 50 1015.0
20260906170524 35 117 6.4 14.5 0.00 0.00 0.00 47 1015.0
20260906170056 35 217 3.2 11.3 0.00 0.00 0.00 48 1015.0
20260906165525 35 142 1.6 12.9 0.00 0.00 0.00 50 1014.9
20260906165024 35 346 3.2 12.9 0.00 0.00 0.00 50 1015.0
20260906164546 34 176 3.2 12.9 0.00 0.00 0.00 52 1015.0
20260906164023 34 142 3.2 11.3 0.00 0.00 0.00 51 1015.0
20260906163524 34 0 3.2 14.5 0.00 0.00 0.00 52 1015.0
20260906163045 33 207 1.6 14.5 0.00 0.00 0.00 53 1015.0
20260906162524 33 338 3.2 12.9 0.00 0.00 0.00 53 1015.0
20260906162024 33 149 3.2 12.9 0.00 0.00 0.00 52 1015.0
20260906161548 33 193 1.6 12.9 0.00 0.00 0.00 53 1014.9
20260906161023 33 165 1.6 12.9 0.00 0.00 0.00 55 1014.8
20260906160525 33 128 3.2 12.9 0.00 0.00 0.00 55 1014.8
20260906160050 33 218 3.2 12.9 0.00 0.00 0.00 55 1014.8
20260906155530 33 171 3.2 12.9 0.00 0.00 0.00 58 1014.8
20260906155025 32 180 3.2 9.7 0.00 0.00 0.00 59 1014.8
20260906154547 32 205 3.2 9.7 0.00 0.00 0.00 60 1014.8
20260906154025 32 198 3.2 9.7 0.00 0.00 0.00 62 1014.8
20260906153528 32 137 1.6 9.7 0.00 0.00 0.00 64 1014.7
20260906153042 32 209 3.2 11.3 0.00 0.00 0.00 65 1014.7
20260906152525 31 78 3.2 11.3 0.00 0.00 0.00 65 1014.7
20260906152024 31 138 1.6 11.3 0.00 0.00 0.00 65 1014.7
20260906151547 31 169 3.2 9.7 0.00 0.00 0.00 66 1014.6
20260906151026 31 215 0.0 6.4 0.00 0.00 0.00 67 1014.5
20260906150524 31 140 3.2 11.3 0.00 0.00 0.00 67 1014.5
20260906150046 31 159 1.6 12.9 0.00 0.00 0.00 69 1014.6
20260906145524 30 93 1.6 12.9 0.00 0.00 0.00 69 1014.6
20260906145023 30 97 3.2 11.3 0.00 0.00 0.00 70 1014.6
20260906144544 30 127 1.6 6.4 0.00 0.00 0.00 70 1014.6
20260906144023 30 188 1.6 6.4 0.00 0.00 0.00 71 1014.6
20260906143523 30 97 1.6 8.0 0.00 0.00 0.00 71 1014.7
20260906143050 30 31 0.0 8.0 0.00 0.00 0.00 72 1014.7
20260906142524 30 138 1.6 8.0 0.00 0.00 0.00 73 1014.7
20260906142024 29 0 1.6 6.4 0.00 0.00 0.00 74 1014.7
20260906141544 28 161 1.6 6.4 0.00 0.00 0.00 75 1014.7
20260906141051 28 118 1.6 6.4 0.00 0.00 0.00 75 1014.6
20260906140524 28 94 1.6 8.0 0.00 0.00 0.00 76 1014.6
20260906140043 28 0 1.6 8.0 0.00 0.00 0.00 76 1014.6
20260906135528 28 167 0.0 4.8 0.00 0.00 0.00 77 1014.6
20260906135026 27 107 1.6 4.8 0.00 0.00 0.00 78 1014.5
20260906134542 27 0 1.6 4.8 0.00 0.00 0.00 78 1014.5
20260906134026 27 0 0.0 3.2 0.00 0.00 0.00 79 1014.4
20260906133521 27 79 0.0 4.8 0.00 0.00 0.00 80 1014.5
20260906133049 27 0 0.0 4.8 0.00 0.00 0.00 81 1014.6
20260906132527 27 0 0.0 3.2 0.00 0.00 0.00 82 1014.6
20260906132025 26 88 0.0 3.2 0.00 0.00 0.00 82 1014.6
20260906131547 26 0 0.0 3.2 0.00 0.00 0.00 83 1014.6
20260906131024 26 82 0.0 3.2 0.00 0.00 0.00 84 1014.6
20260906130524 26 174 0.0 3.2 0.00 0.00 0.00 85 1014.5
20260906130045 26 0 0.0 1.6 0.00 0.00 0.00 85 1014.3
20260906125523 25 0 0.0 3.2 0.00 0.00 0.00 86 1014.3
20260906125023 25 165 0.0 3.2 0.00 0.00 0.00 86 1014.3
20260906124544 25 165 0.0 1.6 0.00 0.00 0.00 86 1014.3
20260906124026 25 0 0.0 1.6 0.00 0.00 0.00 86 1014.4
20260906123523 25 175 0.0 1.6 0.00 0.00 0.00 86 1014.3
20260906123046 25 0 0.0 1.6 0.00 0.00 0.00 87 1014.2
20260906122524 25 0 0.0 3.2 0.00 0.00 0.00 87 1014.1
20260906122020 25 0 0.0 3.2 0.00 0.00 0.00 87 1014.0
20260906121548 25 0 0.0 3.2 0.00 0.00 0.00 87 1014.1
20260906121024 25 0 0.0 1.6 0.00 0.00 0.00 87 1014.0
20260906120523 25 163 0.0 1.6 0.00 0.00 0.00 86 1013.9
20260906120053 25 0 0.0 3.2 0.00 0.00 0.00 86 1013.8
20260906115523 25 0 0.0 3.2 0.00 0.00 0.00 86 1013.9
20260906115023 25 0 0.0 1.6 0.00 0.00 0.00 85 1013.9
20260906114547 25 0 0.0 1.6 0.00 0.00 0.00 86 1013.8
20260906114023 25 0 0.0 1.6 0.00 0.00 0.00 86 1013.7
20260906113526 25 0 0.0 1.6 0.00 0.00 0.00 85 1013.7
20260906113049 25 0 0.0 1.6 0.00 0.00 0.00 85 1013.7
20260906112529 25 0 0.0 0.0 0.00 0.00 0.00 85 1013.7
20260906112025 25 0 0.0 1.6 0.00 0.00 0.00 85 1013.7
20260906111549 25 0 0.0 1.6 0.00 0.00 0.00 85 1013.7
20260906111023 25 0 0.0 4.8 0.00 0.00 0.00 85 1013.7
20260906110524 25 0 0.0 4.8 0.00 0.00 0.00 85 1013.6
20260906110041 25 174 0.0 4.8 0.00 0.00 0.00 85 1013.6
20260906105522 25 0 0.0 3.2 0.00 0.00 0.00 85 1013.6
20260906105021 25 155 0.0 1.6 0.00 0.00 0.00 84 1013.5
20260906104539 25 0 0.0 1.6 0.00 0.00 0.00 84 1013.4
20260906104024 25 0 0.0 1.6 0.00 0.00 0.00 84 1013.4
20260906103524 25 155 0.0 1.6 0.00 0.00 0.00 84 1013.5
20260906103045 25 0 0.0 1.6 0.00 0.00 0.00 84 1013.5
20260906102524 25 155 0.0 1.6 0.00 0.00 0.00 83 1013.5
20260906102026 26 0 0.0 1.6 0.00 0.00 0.00 83 1013.5
20260906101546 25 0 0.0 1.6 0.00 0.00 0.00 83 1013.4
20260906101023 26 0 0.0 1.6 0.00 0.00 0.00 83 1013.3
20260906100526 26 155 0.0 1.6 0.00 0.00 0.00 82 1013.3
20260906100041 26 0 0.0 1.6 0.00 0.00 0.00 82 1013.4
20260906095521 26 0 0.0 1.6 0.00 0.00 0.00 82 1013.4
20260906095021 26 0 0.0 0.0 0.00 0.00 0.00 82 1013.4
20260906094547 26 0 0.0 0.0 0.00 0.00 0.00 82 1013.3
20260906094024 26 0 0.0 0.0 0.00 0.00 0.00 82 1013.3
20260906093527 26 0 0.0 0.0 0.00 0.00 0.00 81 1013.1
20260906093048 26 0 0.0 1.6 0.00 0.00 0.00 81 1013.1
20260906092523 26 0 0.0 1.6 0.00 0.00 0.00 81 1013.0
20260906092025 26 0 0.0 1.6 0.00 0.00 0.00 81 1013.1
20260906091544 26 0 0.0 1.6 0.00 0.00 0.00 81 1013.0
20260906091021 26 155 0.0 3.2 0.00 0.00 0.00 80 1013.0
20260906090521 26 0 0.0 3.2 0.00 0.00 0.00 80 1012.9
20260906090043 26 0 0.0 3.2 0.00 0.00 0.00 80 1012.9
20260906085522 26 180 0.0 4.8 0.00 0.00 0.00 80 1012.9
20260906085026 26 0 0.0 4.8 0.00 0.00 0.00 79 1012.9
20260906084550 26 138 0.0 4.8 0.00 0.00 0.00 79 1013.0
20260906084025 26 171 0.0 4.8 0.00 0.00 0.00 79 1012.9
20260906083524 26 0 0.0 6.4 0.00 0.00 0.00 78 1012.9
20260906083045 26 196 0.0 6.4 0.00 0.00 0.00 78 1012.8
20260906082524 26 155 0.0 4.8 0.00 0.00 0.00 78 1012.8
20260906082024 26 143 1.6 4.8 0.00 0.00 0.00 77 1012.9
20260906081543 26 151 0.0 4.8 0.00 0.00 0.00 77 1012.8
20260906081022 27 0 0.0 4.8 0.00 0.00 0.00 77 1012.9
20260906080523 26 171 0.0 4.8 0.00 0.00 0.00 77 1012.9
20260906080042 27 0 0.0 3.2 0.00 0.00 0.00 77 1012.9
20260906075525 27 0 0.0 3.2 0.00 0.00 0.00 77 1013.1
20260906075024 27 174 0.0 3.2 0.00 0.00 0.00 76 1013.1
20260906074547 27 0 0.0 3.2 0.00 0.00 0.00 77 1013.1
20260906074027 26 225 0.0 3.2 0.00 0.00 0.00 77 1013.0
20260906073524 26 167 0.0 1.6 0.00 0.00 0.00 77 1012.9
20260906073047 26 0 0.0 1.6 0.00 0.00 0.00 77 1012.9
20260906072525 26 0 0.0 1.6 0.00 0.00 0.00 76 1012.9
20260906072024 27 0 0.0 1.6 0.00 0.00 0.00 75 1012.8
20260906071557 27 0 0.0 1.6 0.00 0.00 0.00 75 1012.9
20260906071021 27 0 0.0 1.6 0.00 0.00 0.00 75 1013.0
20260906070524 27 0 0.0 1.6 0.00 0.00 0.00 74 1013.2
20260906070041 27 0 0.0 4.8 0.00 0.00 0.00 74 1013.3
20260906065524 27 0 0.0 6.4 0.00 0.00 0.00 74 1013.3
20260906065025 27 180 0.0 6.4 0.00 0.00 0.00 73 1013.2
20260906064545 27 184 0.0 4.8 0.00 0.00 0.00 73 1013.1
20260906064024 27 0 0.0 9.7 0.00 0.00 0.00 72 1013.2
20260906063523 27 151 1.6 9.7 0.00 0.00 0.00 72 1013.3
20260906063041 27 0 1.6 8.0 0.00 0.00 0.00 71 1013.1
20260906062524 27 168 1.6 8.0 0.00 0.00 0.00 71 1013.1
20260906062025 28 146 0.0 6.4 0.00 0.00 0.00 70 1013.0
20260906061548 28 146 1.6 6.4 0.00 0.00 0.00 70 1013.2
20260906061024 28 0 1.6 6.4 0.00 0.00 0.00 70 1013.2
20260906060524 28 0 1.6 4.8 0.00 0.00 0.00 69 1013.2
20260906060045 28 0 0.0 4.8 0.00 0.00 0.00 69 1013.2
20260906055520 28 169 0.0 3.2 0.00 0.00 0.00 68 1013.2
20260906055024 28 0 0.0 4.8 0.00 0.00 0.00 68 1013.1
20260906054545 28 161 1.6 6.4 0.00 0.00 0.00 67 1013.1
20260906054022 28 171 0.0 8.0 0.00 0.00 0.00 67 1013.3
20260906053523 28 0 1.6 8.0 0.00 0.00 0.00 67 1013.2
20260906053050 28 190 0.0 4.8 0.00 0.00 0.00 68 1013.1
20260906052526 28 159 0.0 3.2 0.00 0.00 0.00 67 1013.1
20260906052026 28 175 0.0 3.2 0.00 0.00 0.00 67 1013.0
20260906051546 28 194 0.0 3.2 0.00 0.00 0.00 67 1012.9
20260906051024 28 0 0.0 4.8 0.00 0.00 0.00 66 1012.9
20260906050526 28 218 0.0 6.4 0.00 0.00 0.00 66 1013.0
20260906050045 29 180 0.0 8.0 0.00 0.00 0.00 66 1013.0
20260906045520 28 0 1.6 8.0 0.00 0.00 0.00 66 1013.0
20260906045022 29 161 0.0 12.9 0.00 0.00 0.00 65 1013.0
20260906044543 29 167 1.6 12.9 0.00 0.00 0.00 65 1013.1
20260906044020 29 187 3.2 12.9 0.00 0.00 0.00 65 1013.1
20260906043524 29 164 1.6 9.7 0.00 0.00 0.00 65 1013.1
20260906043046 29 178 1.6 9.7 0.00 0.00 0.00 66 1013.1
20260906042524 29 142 1.6 8.0 0.00 0.00 0.00 66 1013.1
20260906042024 29 147 1.6 14.5 0.00 0.00 0.00 66 1013.1
20260906041544 29 188 1.6 14.5 0.00 0.00 0.00 65 1013.1
20260906041026 29 168 1.6 8.0 0.00 0.00 0.00 66 1013.1
20260906040523 29 151 0.0 3.2 0.00 0.00 0.00 66 1013.1
20260906040043 29 168 0.0 8.0 0.00 0.00 0.00 65 1013.1
20260906035522 29 153 0.0 8.0 0.00 0.00 0.00 65 1013.1
20260906035024 29 175 1.6 6.4 0.00 0.00 0.00 65 1013.1
20260906034546 30 144 1.6 8.0 0.00 0.00 0.00 65 1013.1
20260906034025 30 152 1.6 8.0 0.00 0.00 0.00 65 1013.0
20260906033521 30 190 1.6 8.0 0.00 0.00 0.00 64 1013.1
20260906033046 30 0 1.6 9.7 0.00 0.00 0.00 64 1013.0
20260906032523 30 181 3.2 9.7 0.00 0.00 0.00 64 1013.1
20260906032023 30 153 1.6 12.9 0.00 0.00 0.00 64 1013.2
20260906031542 30 200 1.6 12.9 0.00 0.00 0.00 64 1013.2
20260906031019 30 185 1.6 9.7 0.00 0.00 0.00 64 1013.2
20260906030523 30 0 0.0 8.0 0.00 0.00 0.00 64 1013.1
20260906030039 30 178 1.6 11.3 0.00 0.00 0.00 63 1013.1
20260906025527 30 223 1.6 12.9 0.00 0.00 0.00 63 1013.2
20260906025025 30 212 1.6 12.9 0.00 0.00 0.00 63 1013.2
20260906024559 30 205 3.2 12.9 0.00 0.00 0.00 62 1013.2
20260906024021 30 157 3.2 12.9 0.00 0.00 0.00 62 1013.1
20260906023524 30 173 3.2 12.9 0.00 0.00 0.00 62 1012.9
20260906023042 30 209 3.2 12.9 0.00 0.00 0.00 61 1012.8
20260906022519 30 121 1.6 12.9 0.00 0.00 0.00 61 1012.8
20260906022021 30 167 3.2 12.9 0.00 0.00 0.00 61 1012.7
20260906021540 30 188 1.6 12.9 0.00 0.00 0.00 60 1012.7
20260906021021 30 126 3.2 12.9 0.00 0.00 0.00 60 1012.7
20260906020524 31 159 1.6 11.3 0.00 0.00 0.00 59 1012.6
20260906020049 31 167 3.2 12.9 0.00 0.00 0.00 59 1012.4
20260906015524 31 167 1.6 12.9 0.00 0.00 0.00 59 1012.3
20260906015024 31 208 1.6 6.4 0.00 0.00 0.00 58 1012.4
20260906014559 31 216 1.6 12.9 0.00 0.00 0.00 58 1012.4
20260906014028 31 163 3.2 17.7 0.00 0.00 0.00 57 1012.4
20260906013521 31 126 4.8 17.7 0.00 0.00 0.00 56 1012.3
20260906013102 31 158 4.8 17.7 0.00 0.00 0.00 56 1012.1
20260906012524 32 193 4.8 17.7 0.00 0.00 0.00 54 1012.1
20260906012022 32 166 4.8 17.7 0.00 0.00 0.00 53 1011.9
20260906011546 32 165 4.8 20.9 0.00 0.00 0.00 52 1011.7
20260906011025 33 196 4.8 20.9 0.00 0.00 0.00 51 1011.6
20260906010525 33 165 6.4 22.5 0.00 0.00 0.00 50 1011.5
20260906010048 33 166 8.0 22.5 0.00 0.00 0.00 49 1011.5
20260906005525 33 161 6.4 19.3 0.00 0.00 0.00 48 1011.5
20260906005028 34 175 4.8 17.7 0.00 0.00 0.00 47 1011.4
20260906004544 34 164 4.8 17.7 0.00 0.00 0.00 46 1011.3
20260906004026 35 176 4.8 16.1 0.00 0.00 0.00 44 1011.2
20260906003528 35 181 3.2 14.5 0.00 0.00 0.00 43 1011.2
20260906003050 35 146 3.2 14.5 0.00 0.00 0.00 43 1011.2
20260906002524 35 169 3.2 11.3 0.00 0.00 0.00 43 1011.2
20260906002025 35 196 3.2 8.0 0.00 0.00 0.00 42 1011.3
20260906001548 35 176 1.6 9.7 0.00 0.00 0.00 43 1011.2
20260906001025 35 175 3.2 9.7 0.00 0.00 0.00 42 1011.2
20260906000526 35 180 1.6 9.7 0.00 0.00 0.00 41 1011.2
20260906000048 35 145 1.6 12.9 0.00 0.00 0.00 41 1011.2
20260905235524 35 160 3.2 12.9 0.00 0.00 0.00 41 1011.2
20260905235024 35 0 1.6 8.0 0.00 0.00 0.00 41 1011.1
20260905234545 35 171 3.2 12.9 0.00 0.00 0.00 41 1011.0
20260905234024 36 137 1.6 14.5 0.00 0.00 0.00 41 1010.9
20260905233524 36 107 3.2 14.5 0.00 0.00 0.00 41 1011.0
20260905233047 36 181 3.2 11.3 0.00 0.00 0.00 40 1011.0
20260905232526 36 192 1.6 11.3 0.00 0.00 0.00 40 1011.0
20260905232026 36 139 3.2 11.3 0.00 0.00 0.00 39 1011.0
20260905231545 36 150 3.2 11.3 0.00 0.00 0.00 38 1011.1